Regional Weather Roundup
Issued by NWS

Home | Current Version | Previous Version | Graphics & Text | Print | Product List | Glossary On
Versions: 1 2 3 4 5 6 7 8 9 10 11 12 13 14 15 16 17 18 19 20 21 22 23 24 25 26 27 28 29 30 31 32 33 34 35 36 37 38 39 40 41 42 43 44 45 46 47 48 49 50
000
ASUS43 KLOT 261021
RWRIL

ILLINOIS REGIONAL WEATHER ROUNDUP
NATIONAL WEATHER SERVICE CHICAGO/ROMEOVILLE IL
500 AM CDT SUN APR 26 2015

NOTE: "FAIR" INDICATES FEW OR NO CLOUDS BELOW 12,000 FEET WITH NO
SIGNIFICANT WEATHER AND/OR OBSTRUCTIONS TO VISIBILITY.

* THESE STATIONS ARE NOT UNDER NWS QUALITY CONTROL. THEY ALSO MAY NOT
  REPORT WEATHER SUCH AS PRECIPITATION OR FOG.

ILZ001-002-007-009-015-016-024-261100-
NORTHWEST ILLINOIS

CITY           SKY/WX    TMP DP  RH WIND       PRES   REMARKS
MOLINE         CLEAR     36  30  79 CALM      29.93S
STERLING*      CLEAR     36  25  64 NE9       29.94R WCI  29
SAVANNA*       CLEAR     36  25  63 N5        29.95R WCI  32
$$

ILZ003-004-008-010-011-017-018-261100-
NORTH CENTRAL ILLINOIS

CITY           SKY/WX    TMP DP  RH WIND       PRES   REMARKS
ROCKFORD       CLEAR     33  21  61 N7        29.96R WCI  27
FREEPORT*      CLEAR     33  24  71 N5        29.97R WCI  28
ROCHELLE*      CLEAR     34  26  74 N10       29.93R WCI  26
DE KALB*       CLEAR     32  27  80 N7        29.93R WCI  26
PERU*          CLEAR     37  30  78 NE8       29.91S WCI  30
$$

ILZ005-006-012>014-019>023-261100-
NORTHEAST ILLINOIS

CITY           SKY/WX    TMP DP  RH WIND       PRES   REMARKS
CHICAGO-OHARE  CLEAR     35  29  78 N7        29.91R WCI  29
CHICAGO-MIDWAY PTCLDY    41  30  65 NE8       29.91R
AURORA         CLEAR     35  27  72 NE8       29.92R WCI  29
LANSING*       CLEAR     39  30  69 NE9       29.90R WCI  33
JOLIET*        CLEAR     38  32  79 N5        29.91R WCI  34
WAUKEGAN       CLEAR     35  28  75 N7        29.94R WCI  29
DUPAGE AIRPORT CLEAR     31  27  85 N8        29.91S WCI  23
KANKAKEE*      CLEAR     36  33  89 N5        29.89S WCI  32
WHEELING       CLEAR     35  29  78 N5        29.94R WCI  31
MORRIS*        CLEAR     36  31  82 N6        29.88R WCI  31
ROMEOVILLE*    CLEAR     36  30  80 N9        29.91R WCI  29
NORTHERLY ISL    N/A     41  33  73 N14         N/A
$$

LMZ740>746-261100-
SOUTHERN LAKE MICHIGAN

STATION/POSITION SKY/WX   TEMP    WIND        PRES    VSBY  WAVE
                          AIR SEA DIR/SP/G                  HT/PER
                          (F)     (DEG/KT/KT) (MB)    (MI)  (FT/S)
HARRISON CRIB              40      30/ 14/ 16   N/A
BURNHAM HARBOR             41      10/ 11/ 17   N/A
CALUMET HARBOR             43      20/ 11/ 15   N/A
BURNS HARBOR               44      50/ 15/ 19 1012.5R
MICHIGAN CITY              42      30/ 17/ 19   N/A
MICHIGAN CITY 6N           41 45   50/ 12/ 16   N/A           4/ 5
$$

ILZ025>027-034>036-040-047-049-050-058-095>099-261100-
WEST-CENTRAL ILLINOIS

CITY           SKY/WX    TMP DP  RH WIND       PRES   REMARKS
QUINCY         PTCLDY    42  36  79 NE9       29.88R
GALESBURG*     PTCLDY    33  32  94 N8        29.91S WCI  26
MACOMB*        MOCLDY    38  32  78 NE9       29.93S WCI  32
JACKSONVILLE*  CLOUDY    46  39  77 NE13      29.88R
PITTSFIELD*    CLOUDY    46  41  80 NE8       29.88R
$$

ILZ028>032-037-038-041>044-048-051>054-059>061-261100-
CENTRAL ILLINOIS

CITY           SKY/WX    TMP DP  RH WIND       PRES   REMARKS
PONTIAC        CLEAR    N/A N/A N/A N8        29.90R
BLOOMINGTON    CLEAR     38  33  82 N8        29.89R WCI  32
DECATUR        PTCLDY    41  37  86 N12       29.86R
PEORIA         CLEAR     41  29  62 NE6       29.90R
LACON*         CLEAR     35  30  80 CALM      29.91R
LINCOLN*       MOCLDY    41  36  83 N8        29.89R
SPRINGFIELD    CLOUDY    43  37  79 NE10      29.88R
TAYLORVILLE    CLOUDY    43  37  81 N12       29.85R
$$

ILZ033-039-045-046-055>057-062-063-261100-
EAST-CENTRAL ILLINOIS

CITY           SKY/WX    TMP DP  RH WIND       PRES   REMARKS
CHAMPAIGN      CLEAR     41  35  79 N10       29.85R
DANVILLE*      PTCLDY    39  35  86 N9        29.83R WCI  32
RANTOUL*       CLEAR     41  38  90 N9        29.86S
MATTOON        CLOUDY    43  36  76 NE10      29.82R
PARIS*         MOCLDY    42  35  74 NE6       29.85R
$$

ILZ079-100>102-261100-
SOUTHWEST ILLINOIS

CITY           SKY/WX    TMP DP  RH WIND       PRES   REMARKS
ALTON          CLOUDY    46  43  87 N5        29.85R
BELLEVILLE     CLOUDY    48  47  98 N7        29.82R
CAHOKIA*       CLOUDY    48  43  82 N10       29.84R
SPARTA*        CLOUDY    46  45  96 N8        29.82R FOG
$$

ILZ064>066-069>071-074>076-080>082-084>086-088>090-092>094-261100-
SOUTH-CENTRAL ILLINOIS

CITY           SKY/WX    TMP DP  RH WIND       PRES   REMARKS
CARBONDALE     CLOUDY    49  46  90 N8        29.78R
CAIRO*         CLOUDY    51  49  90 N13       29.75R
EFFINGHAM*     CLOUDY    46  38  74 N7        29.83R
MARION         CLOUDY    50  46  87 N10       29.78R
MT. VERNON     CLOUDY    46  39  76 NE5       29.81R
CENTRALIA*     CLOUDY    47  42  84 N5        29.81R
SALEM*         CLOUDY    48  44  84 N9        29.82R
METROPOLIS*    CLOUDY    51  51 100 N9        29.74R
$$

ILZ067-068-072-073-078-083-087-091-261100-
SOUTHEAST ILLINOIS

CITY           SKY/WX    TMP DP  RH WIND       PRES   REMARKS
LAWRENCEVILLE  CLOUDY    47  42  83 NE12      29.79R
FLORA*         CLOUDY    46  41  82 N7        29.81R
FAIRFIELD*     CLOUDY    47  44  87 N9        29.78R
HARRISBURG*    CLOUDY    48  47  93 N10       29.79R
ROBINSON*      CLOUDY    45  38  78 NE10      29.81S
CARMI*         CLOUDY    48  41  77 N9        29.78R
$$

ABBREVIATIONS USED IN REMARKS
   TC - TEMPERATURE IN CELSIUS
  WCI - WIND CHILL INDEX
   HX - HEAT INDEX
  VSB - VISIBILITY
$$




USA.gov is the U.S. government's official web portal to all federal, state and local government web resources and services.